Weather History for Eureka Airport, NV

Change the Weather History Date:

Tuesday, September 24, 2013

  Actual Average Record
Temperature  
Mean Temperature 58 °F -  
Max Temperature 78 °F - - ()
Min Temperature 39 °F - - ()
Degree Days  
Heating Degree Days 6    
Growing Degree Days 8 (Base 50)    
Moisture  
Dew Point 27 °F    
Average Humidity 35    
Maximum Humidity 65    
Minimum Humidity 12    
Precipitation  
Precipitation 0.00 in - - ()
Sea Level Pressure  
Sea Level Pressure 29.98 in    
Wind  
Wind Speed 9 mph (SW)    
Max Wind Speed 25 mph    
Max Gust Speed 33 mph    
Visibility 9 miles    
Events      
T = Trace of Precipitation, MM = Missing Value Source: NWS Daily Summary

Daily Weather History Graph

Daily Weather History Graph

Search for Another Location

Airport:

Trip Planner

Search our weather history database for the weather conditions in past years. The results will help you decide how hot, cold, wet, or windy it might be!

Date:

Astronomy

Sep. 24, 2013 Rise Set
Actual Time 6:33 AM PDT 6:37 PM PDT
Civil Twilight 6:06 AM PDT 7:04 PM PDT
Nautical Twilight 5:35 AM PDT 7:35 PM PDT
Astronomical Twilight 5:03 AM PDT 8:07 PM PDT
Moon 9:59 PM PDT (9/24) 11:51 AM PDT (9/24)
Length of Visible Light 12h 57m
Length of Day
12h 03m
Waning Gibbous, 72% of the Moon is Illuminated
Sep 24
Waning Gibbous
Sep 26
Last Quarter
Oct 4
New
Oct 11
First Quarter
Oct 18
Full

Hourly Weather History & Observations

Time (PDT) Temp. Windchill Dew Point Humidity Pressure Visibility Wind Dir Wind Speed Gust Speed Precip Events Conditions
12:05 AM 50.0 °F - 32.0 °F 50% 30.13 in 10.0 mi South 8.1 mph - N/A   Clear
12:25 AM 50.0 °F - 32.0 °F 50% 30.13 in 10.0 mi SSW 9.2 mph - N/A   Clear
12:45 AM 48.2 °F - 32.0 °F 54% 30.12 in 10.0 mi SSW 8.1 mph - N/A   Clear
1:05 AM 46.4 °F 41.9 °F 32.0 °F 57% 30.12 in 10.0 mi SSW 9.2 mph - N/A   Clear
1:25 AM 46.4 °F 43.5 °F 32.0 °F 57% 30.12 in 10.0 mi South 5.8 mph - N/A   Clear
1:45 AM 44.6 °F 41.4 °F 32.0 °F 61% 30.12 in 10.0 mi SSW 5.8 mph - N/A   Clear
2:05 AM 44.6 °F 39.7 °F 30.2 °F 57% 30.12 in 10.0 mi SSW 9.2 mph - N/A   Clear
2:25 AM 44.6 °F 39.7 °F 30.2 °F 57% 30.11 in 10.0 mi SSW 9.2 mph - N/A   Clear
2:40 AM 44.6 °F 39.7 °F 30.2 °F 57% 30.11 in 10.0 mi SSW 9.2 mph - N/A   Clear
3:05 AM 42.8 °F 37.0 °F 28.4 °F 57% 30.10 in 10.0 mi SSW 10.4 mph - N/A   Clear
3:25 AM 42.8 °F 37.5 °F 28.4 °F 57% 30.10 in 10.0 mi SSW 9.2 mph - N/A   Clear
3:45 AM 42.8 °F 36.2 °F 28.4 °F 57% 30.10 in 10.0 mi SW 12.7 mph - N/A   Clear
4:05 AM 44.6 °F 38.8 °F 30.2 °F 57% 30.10 in 10.0 mi SW 11.5 mph - N/A   Clear
4:25 AM 44.6 °F 38.8 °F 30.2 °F 57% 30.09 in 10.0 mi SSW 11.5 mph - N/A   Clear
4:45 AM 42.8 °F 37.5 °F 30.2 °F 61% 30.09 in 10.0 mi SSW 9.2 mph - N/A   Clear
5:05 AM 39.2 °F 33.6 °F 28.4 °F 65% 30.09 in 10.0 mi SSW 8.1 mph - N/A   Clear
5:25 AM 39.2 °F 34.2 °F 28.4 °F 65% 30.09 in 10.0 mi SSW 6.9 mph - N/A   Clear
5:40 AM 41.0 °F 36.4 °F 30.2 °F 65% 30.09 in 10.0 mi SW 6.9 mph - N/A   Clear
6:05 AM 41.0 °F 35.2 °F 30.2 °F 65% 30.08 in 10.0 mi SW 9.2 mph - N/A   Clear
6:25 AM 42.8 °F 38.0 °F 28.4 °F 57% 30.08 in 10.0 mi SW 8.1 mph - N/A   Clear
6:45 AM 41.0 °F 35.2 °F 28.4 °F 61% 30.08 in 10.0 mi SW 9.2 mph - N/A   Clear
7:05 AM 39.2 °F 33.0 °F 28.4 °F 65% 30.08 in 10.0 mi SW 9.2 mph - N/A   Clear
7:25 AM 42.8 °F 39.3 °F 28.4 °F 57% 30.08 in 10.0 mi SSW 5.8 mph - N/A   Clear
7:45 AM 46.4 °F 43.5 °F 30.2 °F 53% 30.08 in 10.0 mi SSW 5.8 mph - N/A   Clear
8:05 AM 51.8 °F - 28.4 °F 41% 30.07 in 10.0 mi SW 5.8 mph - N/A   Clear
8:25 AM 55.4 °F - 28.4 °F 36% 30.07 in 10.0 mi SW 5.8 mph - N/A   Clear
8:45 AM 59.0 °F - 26.6 °F 29% 30.06 in 10.0 mi SW 5.8 mph - N/A   Clear
9:05 AM 60.8 °F - 26.6 °F 27% 30.05 in 10.0 mi SW 3.5 mph - N/A   Clear
9:25 AM 62.6 °F - 26.6 °F 26% 30.04 in 10.0 mi Calm Calm - N/A   Clear
9:45 AM 66.2 °F - 26.6 °F 23% 30.05 in 10.0 mi WSW 3.5 mph - N/A   Clear
10:05 AM 66.2 °F - 28.4 °F 24% 30.04 in 10.0 mi WSW 5.8 mph - N/A   Clear
10:25 AM 68.0 °F - 28.4 °F 23% 30.03 in 10.0 mi SSW 3.5 mph - N/A   Clear
10:45 AM 69.8 °F - 26.6 °F 20% 30.02 in 10.0 mi WNW 4.6 mph - N/A   Clear
11:05 AM 73.4 °F - 26.6 °F 18% 30.01 in 10.0 mi SSW 6.9 mph - N/A   Clear
11:25 AM 73.4 °F - 28.4 °F 19% 30.01 in 10.0 mi South 10.4 mph 17.3 mph N/A   Clear
11:45 AM 73.4 °F - 28.4 °F 19% 30.00 in 10.0 mi SSW 11.5 mph 18.4 mph N/A   Clear
12:05 PM 75.2 °F - 28.4 °F 18% 29.98 in 10.0 mi South 15.0 mph 20.7 mph N/A   Clear
12:25 PM 75.2 °F - 28.4 °F 18% 29.96 in 10.0 mi South 16.1 mph 24.2 mph N/A   Clear
12:45 PM 77.0 °F - 28.4 °F 17% 29.95 in 10.0 mi South 20.7 mph 24.2 mph N/A   Clear
1:05 PM 77.0 °F - 26.6 °F 16% 29.94 in 10.0 mi SSW 18.4 mph 27.6 mph N/A   Partly Cloudy
1:25 PM 75.2 °F - 26.6 °F 17% 29.93 in 10.0 mi SW 16.1 mph 21.9 mph N/A   Mostly Cloudy
1:45 PM 73.4 °F - 24.8 °F 16% 29.92 in 10.0 mi SW 19.6 mph 26.5 mph N/A   Mostly Cloudy
2:00 PM 75.2 °F - 26.6 °F 17% 29.91 in 10.0 mi SW 16.1 mph 20.7 mph N/A   Overcast
2:20 PM 77.0 °F - 24.8 °F 14% 29.90 in 10.0 mi WSW 21.9 mph 32.2 mph N/A   Mostly Cloudy
2:40 PM 77.0 °F - 23.0 °F 13% 29.89 in 10.0 mi West 25.3 mph 33.4 mph N/A   Partly Cloudy
3:05 PM 78.8 °F - 23.0 °F 13% 29.89 in 10.0 mi WSW 25.3 mph 29.9 mph N/A   Partly Cloudy
3:20 PM 78.8 °F - 23.0 °F 13% 29.88 in 10.0 mi WSW 18.4 mph 26.5 mph N/A   Clear
3:45 PM 77.0 °F - 19.4 °F 12% 29.88 in 10.0 mi WSW 20.7 mph 32.2 mph N/A   Clear
4:05 PM 78.8 °F - 21.2 °F 12% 29.87 in 10.0 mi SW 17.3 mph 28.8 mph N/A   Clear
4:25 PM 77.0 °F - 21.2 °F 12% 29.86 in 10.0 mi SW 15.0 mph 26.5 mph N/A   Clear
4:45 PM 75.2 °F - 23.0 °F 14% 29.86 in 10.0 mi WSW 12.7 mph - N/A   Partly Cloudy
5:05 PM 73.4 °F - 23.0 °F 15% 29.85 in 10.0 mi WSW 10.4 mph - N/A   Clear
5:25 PM 73.4 °F - 24.8 °F 16% 29.85 in 10.0 mi West 8.1 mph - N/A   Mostly Cloudy
5:40 PM 71.6 °F - 24.8 °F 17% 29.84 in 10.0 mi West 9.2 mph - N/A   Overcast
6:05 PM 73.4 °F - 24.8 °F 16% 29.83 in 9.0 mi West 18.4 mph 25.3 mph N/A   Overcast
6:25 PM 68.0 °F - 24.8 °F 20% 29.84 in 1.8 mi NW 19.6 mph 28.8 mph N/A   Mostly Cloudy
6:40 PM 66.2 °F - 24.8 °F 21% 29.85 in 1.8 mi NW 11.5 mph 26.5 mph N/A   Scattered Clouds
7:05 PM 64.4 °F - 23.0 °F 21% 29.86 in 5.0 mi WNW 11.5 mph - N/A   Partly Cloudy
7:25 PM 64.4 °F - 23.0 °F 21% 29.88 in 5.0 mi NNE 3.5 mph - N/A   Scattered Clouds
7:45 PM 62.6 °F - 23.0 °F 22% 29.88 in 5.0 mi South 3.5 mph - N/A   Mostly Cloudy
8:05 PM 62.6 °F - 23.0 °F 22% 29.89 in 3.0 mi NNW 4.6 mph - N/A   Overcast
8:25 PM 59.0 °F - 21.2 °F 23% 29.89 in 2.5 mi Calm Calm - N/A   Overcast
8:45 PM 59.0 °F - 21.2 °F 23% 29.88 in 3.0 mi Calm Calm - N/A   Overcast
9:05 PM 55.4 °F - 26.6 °F 33% 29.87 in 3.0 mi Calm Calm - N/A   Overcast
9:25 PM 55.4 °F - 24.8 °F 31% 29.86 in 2.5 mi Calm Calm - N/A   Mostly Cloudy
9:45 PM 53.6 °F - 26.6 °F 35% 29.86 in 2.5 mi Calm Calm - N/A   Mostly Cloudy
10:05 PM 50.0 °F - 26.6 °F 40% 29.85 in 2.5 mi Calm Calm - N/A   Mostly Cloudy
10:25 PM 48.2 °F - 26.6 °F 43% 29.84 in 3.0 mi Calm Calm - N/A   Scattered Clouds
10:45 PM 48.2 °F - 24.8 °F 40% 29.83 in 4.0 mi South 6.9 mph - N/A   Partly Cloudy
11:05 PM 48.2 °F - 24.8 °F 40% 29.82 in 10.0 mi South 5.8 mph - N/A   Clear
11:20 PM 46.4 °F 44.3 °F 24.8 °F 43% 29.82 in 10.0 mi South 4.6 mph - N/A   Clear
11:40 PM 44.6 °F - 23.0 °F 43% 29.81 in 10.0 mi Calm Calm - N/A   Clear